Starlink 5095

operational
NORAD ID: 56885 Int'l Des: 2023-083 Owner: SPXS Country: US Constellation: starlink
LEOCIRCULAR

About Starlink 5095

Description loading...

Live Position

Loading 3D Globe...

Upcoming Passes

Altitude History

Altitude vs Time

uPlot chart will show altitude changes over time

Two-Line Element Set

1 56885U 23083K 26035.35652695 -.00000279 00000-0 -56033-5 0 9997
2 56885 43.0023 263.1252 0001332 274.9790 85.0900 15.02535687146650
Epoch: Feb 4, 2026 • Age: 14 hours

Current Status

Altitude 565.1 km
Velocity 7.58 km/s
Sub-Earth Point -26.65°S, 111.43°E
Launch Date Jun 12, 2023
Age 2.6 years
Type internet

Technical Details

Classification Payload
Mass 305.00 kg
Dry Mass 290.00 kg
Total Mass 305.00 kg
Length 0.20 m
Diameter 2.80 m
Span 9.00 m
Shape Box + pan
Manufacturer SPXS
Bus Type Starlink
Phase Status In Orbit
Owner/State SPXS/US

Large Constellations

Loading constellations...